Wetbulb
74.08 73.88 73.07 72.26 71.98 71.44 71.80 72.18 72.09 72.23 71.93 71.52 71.16 70.87 71.09 71.21 70.95 70.71 69.78 69.27 69.05 69.30
74.11 74.45 73.53 73.15 72.60 72.53 71.75 72.61 71.63 72.45 69.16 67.03 68.58 71.95 71.64 71.44 71.52 71.94 71.68 71.27 70.47 69.84
74.57 74.73 75.09 73.82 72.27 72.06 70.36 68.21 69.79 69.46 70.22 70.44 70.24 71.44 72.30 71.79 71.62 71.20 71.67 71.59 70.81 70.38
74.12 74.62 74.90 73.87 73.55 72.29 71.55 68.63 68.71 71.16 67.90 67.39 69.55 72.18 72.49 71.35 71.87 71.25 71.12 71.68 70.68 70.43
73.62 74.02 74.01 73.26 72.89 72.83 72.02 70.95 71.33 70.34 68.17 67.67 70.77 71.57 71.44 70.61 71.46 70.92 70.26 70.68 70.36 69.61
70.66 71.62 70.86 72.45 72.85 71.33 70.47 69.35 70.99 70.53 69.23 69.84 70.51 71.28 70.94 70.84 70.91 69.64 69.62 70.22 70.40 70.15
69.38 68.22 69.90 70.57 70.96 71.35 70.47 69.47 69.59 69.70 69.57 71.63 71.17 71.32 70.54 68.65 67.66 67.79 69.66 70.65 71.00 70.43
67.61 67.68 68.41 68.74 70.35 70.55 69.24 69.64 69.03 68.54 69.06 69.81 69.39 68.27 65.89 64.81 64.14 63.80 65.72 69.71 71.21 71.10
64.65 65.31 65.17 65.77 67.39 69.48 69.45 67.57 66.56 65.47 64.85 65.54 68.69 65.78 65.18 64.94 63.81 65.75 67.32 66.81 68.63 70.12
62.97 63.73 64.21 64.83 65.26 64.41 66.06 67.75 66.97 66.32 65.60 65.45 66.09 64.54 64.25 66.38 65.18 64.82 65.25 66.22 68.20 69.75
62.37 62.99 63.70 63.06 63.65 64.10 64.34 64.59 65.81 68.27 67.86 66.76 67.77 64.34 63.33 65.25 64.33 62.33 62.03 63.52 66.94 68.52
62.95 63.00 63.35 63.00 63.32 63.88 64.00 64.05 64.21 65.23 66.63 67.82 69.64 64.57 62.50 62.82 64.84 63.44 60.61 62.37 65.94 68.56
63.47 63.86 63.35 63.53 63.38 63.05 63.67 64.08 65.07 65.01 65.23 64.14 65.78 63.36 62.17 61.24 65.06 63.69 61.82 61.62 64.21 64.63
62.81 62.39 63.52 63.44 63.13 63.54 63.63 63.63 63.24 63.19 63.56 64.05 63.94 64.15 60.82 59.49 64.27 65.63 64.96 61.56 62.43 64.20
MSLP
1010.12 1010.55 1010.84 1011.10 1011.51 1011.86 1011.78 1011.59 1011.63 1011.56 1011.76 1011.89 1012.36 1012.74 1012.91 1013.15 1013.61 1014.01 1014.29 1014.13 1014.34 1014.64
1009.40 1009.86 1010.31 1010.29 1010.56 1010.89 1011.03 1011.16 1011.31 1011.38 1011.95 1012.93 1013.76 1012.78 1012.52 1012.64 1012.96 1013.28 1013.52 1013.63 1013.67 1013.99
1009.13 1009.09 1009.34 1009.59 1010.11 1010.20 1010.42 1010.86 1011.03 1011.89 1012.70 1012.79 1012.36 1012.39 1011.89 1012.31 1012.67 1012.53 1012.53 1012.73 1013.01 1013.13
1008.66 1008.61 1008.90 1009.26 1009.54 1009.75 1010.04 1010.63 1010.69 1011.43 1011.42 1010.83 1010.87 1010.91 1011.21 1011.41 1011.60 1011.75 1011.55 1011.76 1012.11 1012.16
1008.04 1008.26 1008.57 1008.80 1009.07 1009.45 1009.42 1009.86 1009.86 1010.07 1010.65 1010.78 1010.45 1009.87 1010.15 1010.56 1010.62 1011.22 1011.22 1011.03 1011.26 1011.55
1008.29 1008.63 1008.87 1008.92 1008.96 1009.30 1009.48 1009.56 1009.24 1009.34 1009.78 1009.91 1009.86 1009.50 1009.62 1009.94 1010.42 1010.81 1010.79 1010.64 1010.76 1010.76
1009.28 1009.55 1009.37 1009.27 1008.93 1008.79 1009.33 1009.23 1009.13 1009.16 1009.14 1009.13 1009.14 1009.30 1009.50 1009.83 1010.23 1010.37 1010.16 1009.94 1009.94 1010.00
1009.53 1009.52 1009.44 1009.37 1009.28 1009.11 1009.36 1009.23 1009.13 1009.42 1009.39 1009.12 1009.18 1009.44 1009.59 1009.62 1009.82 1009.82 1009.67 1009.32 1009.24 1009.24
1009.65 1009.60 1009.65 1009.64 1009.60 1009.53 1009.25 1009.35 1009.34 1009.27 1009.30 1009.34 1009.24 1009.38 1009.31 1009.33 1009.53 1009.41 1009.32 1008.91 1008.73 1008.58
1009.24 1009.26 1009.24 1009.15 1009.20 1009.24 1009.18 1009.19 1009.29 1009.22 1009.16 1009.17 1009.08 1009.25 1009.12 1009.22 1009.18 1009.15 1008.84 1008.41 1007.47 1007.43
1008.63 1008.62 1008.58 1008.61 1008.61 1008.69 1008.78 1008.84 1008.87 1008.90 1008.90 1008.92 1008.65 1008.53 1008.57 1008.70 1008.68 1008.56 1008.25 1008.15 1007.10 1006.55
1007.90 1007.90 1007.81 1007.97 1008.00 1008.03 1008.19 1008.30 1008.34 1008.32 1008.35 1008.36 1008.13 1007.98 1007.89 1008.19 1008.17 1007.95 1007.65 1007.26 1006.75 1006.00
1007.26 1007.18 1007.19 1007.15 1007.17 1007.19 1007.36 1007.50 1007.56 1007.68 1007.58 1007.47 1007.42 1007.27 1007.10 1007.32 1007.34 1007.12 1006.82 1006.78 1006.22 1006.44
1006.89 1006.72 1006.59 1006.47 1006.43 1006.44 1006.54 1006.67 1006.81 1006.85 1006.84 1006.72 1006.59 1006.37 1006.22 1006.17 1006.53 1006.22 1006.01 1005.96 1005.50 1005.46
Wind_Speed
9 7 8 7 6 7 7 8 7 11 11 12 10 10 9 7 6 7 7 10 7 5
9 10 8 8 6 6 5 6 7 8 4 7 5 7 8 7 7 7 8 9 8 7
9 9 10 7 8 8 6 6 5 6 9 14 12 10 7 3 10 10 9 7 9 8
6 7 7 6 6 7 6 8 7 10 14 16 16 12 9 10 12 10 8 9 8 11
5 7 7 6 5 5 6 5 11 13 8 9 10 9 7 8 8 9 8 8 8 10
8 3 4 5 4 2 4 5 6 4 4 6 8 6 5 6 3 5 6 6 9 12
6 6 5 1 4 3 3 5 5 3 5 6 4 2 4 4 3 3 5 6 8 10
4 5 5 6 5 4 4 1 3 2 3 4 3 3 5 5 4 5 6 5 6 8
2 0 2 2 4 4 4 2 2 4 5 4 4 8 8 6 5 5 5 6 5 5
5 5 5 4 2 2 2 1 3 5 5 6 6 11 11 10 5 6 7 7 7 6
7 7 6 5 5 4 3 3 3 5 6 6 7 10 14 14 7 7 7 9 8 8
8 8 7 7 7 6 5 4 5 5 6 7 7 11 14 11 9 10 8 8 9 8
7 7 8 9 8 6 5 6 5 6 7 9 8 10 15 13 8 10 7 7 8 6
7 8 9 8 5 6 7 6 6 7 7 8 9 9 14 15 11 10 9 9 8 6
Wind_Direction
202 211 214 200 209 210 207 215 191 209 212 213 200 214 216 214 200 204 231 241 223 228
206 215 223 206 205 211 200 205 194 222 237 21 286 232 203 220 226 211 215 233 231 217
209 213 220 216 203 214 196 219 206 107 55 313 274 257 222 225 258 218 223 222 228 227
234 223 231 223 213 226 190 189 209 157 167 207 241 234 216 183 233 236 216 218 208 227
247 240 237 246 232 226 220 200 183 190 186 209 243 244 209 216 217 232 226 221 206 228
19 347 273 267 279 251 209 223 241 267 197 231 241 226 204 212 231 251 241 220 211 230
15 4 338 236 286 291 235 214 223 232 264 267 257 161 143 130 156 250 257 237 224 230
3 352 349 355 345 319 320 29 232 242 279 252 185 148 173 161 208 238 241 236 228 220
198 294 328 314 1 346 344 350 228 236 250 256 242 167 198 190 202 224 210 196 186 165
227 226 222 238 270 285 307 254 272 281 279 260 246 185 214 210 205 212 220 237 181 168
240 238 244 246 247 232 223 235 237 242 247 254 261 220 218 216 218 232 239 247 211 181
230 234 230 235 238 231 207 221 233 230 239 237 246 246 233 209 221 242 244 248 253 216
237 227 226 226 227 224 212 223 219 235 232 238 251 238 243 223 233 254 246 252 262 270
256 246 243 238 220 221 225 222 225 227 234 236 234 246 240 228 227 240 254 254 257 247